• Processing (Info)

  • MPEC 2023-S197 : 2023 SV5

    The following Minor Planet Electronic Circular may be linked-to from your own Web pages, but must not otherwise be redistributed electronically.

    A form allowing access to any MPEC is at the bottom of this page.


    Read MPEC 2023-S196 Read MPEC 2023-S198


    M.P.E.C. 2023-S197                           Issued 2023 September 25, 02:15 UT
    
         The Minor Planet Electronic Circulars contain information on unusual
             minor planets, routine data on comets and natural satellites,
             and occasional editorial announcements.  They are published
        on behalf of Division F of the International Astronomical Union by the
              Minor Planet Center, Smithsonian Astrophysical Observatory,
                              Cambridge, MA 02138, U.S.A.
    			  
                 Prepared using the Tamkin Foundation Computer Network
    
                                  MPC@CFA.HARVARD.EDU
                URL https://www.minorplanetcenter.net/    ISSN 1523-6714
    
                                    2023 SV5                                 
    
    
    Observations:
         K23S05V*1C2023 09 24.18119523 33 02.027+07 59 38.29         18.30GVES197703
         K23S05V 1C2023 09 24.18707023 33 07.330+08 02 50.64         18.66GVES197703
         K23S05V 1C2023 09 24.19295323 33 12.564+08 06 03.13         18.36GVES197703
         K23S05V 1C2023 09 24.19883023 33 17.644+08 09 13.43         18.64GVES197703
         K23S05V  C2023 09 24.22426323 33 11.88 +08 34 57.5                WES197X09
         K23S05V  C2023 09 24.22709023 33 14.23 +08 36 25.3                WES197X09
         K23S05V mC2023 09 24.23794823 33 50.908+08 29 59.75         18.30GVES197I52
         K23S05V mC2023 09 24.23811823 33 51.052+08 30 05.08         18.51GVES197I52
         K23S05V mC2023 09 24.23829323 33 51.203+08 30 10.51         18.65GVES197I52
         K23S05V mC2023 09 24.23846423 33 51.340+08 30 15.98         18.77GVES197I52
         K23S05V KB2023 09 24.79786723 42 30.302+12 30 26.93         18.5 GXES197B72
         K23S05V KC2023 09 24.80097323 42 32.630+12 31 45.84         18.7 GVES197A17
         K23S05V KB2023 09 24.80332623 42 34.002+12 32 27.99         18.5 GXES197B72
         K23S05V KB2023 09 24.80877323 42 37.661+12 34 28.58         18.5 GXES197B72
         K23S05V KC2023 09 24.81311023 42 40.718+12 36 14.15         18.7 GVES197A17
         K23S05V KC2023 09 24.82233323 42 46.769+12 39 36.18         18.9 GVES197A17
         K23S05V KC2023 09 24.82721823 42 51.26 +12 41 54.4          18.9 GVES197203
         K23S05V KC2023 09 24.83494 23 42 52.24 +12 44 02.0          18.6 GVES197C43
         K23S05V KC2023 09 24.83698 23 42 53.53 +12 44 46.2          18.6 GVES197C43
         K23S05V KC2023 09 24.83735423 42 57.44 +12 45 49.1          18.6 GVES197104
         K23S05V KC2023 09 24.83902 23 42 54.86 +12 45 30.1          18.9 GVES197C43
         K23S05V KC2023 09 24.84112 23 42 56.20 +12 46 15.5          18.9 GVES197C43
         K23S05V KC2023 09 24.84155123 43 00.02 +12 47 20.1          18.6 GVES197104
         K23S05V KC2023 09 24.84678223 43 03.22 +12 49 13.2          19.0 GVES197104
         K23S05V KB2023 09 24.85700 23 43 07.47 +12 51 39.8          19.2 GVES197L65
         K23S05V KB2023 09 24.85794323 43 14.00 +12 52 57.6          18.4 GVES197I93
         K23S05V KC2023 09 24.85810423 43 10.31 +12 53 01.6          18.7 GVES197203
         K23S05V KC2023 09 24.85921523 43 11.00 +12 53 23.0                VES197204
         K23S05V KB2023 09 24.85941123 43 15.42 +12 53 34.9          18.7 GXES197958
         K23S05V KB2023 09 24.86338223 43 17.30 +12 54 53.6          19.0 GVES197I93
         K23S05V KC2023 09 24.86353623 43 13.58 +12 54 55.1                VES197204
         K23S05V KB2023 09 24.86534423 43 19.13 +12 55 40.7          18.8 GXES197958
         K23S05V KC2023 09 24.86588 23 43 12.166+12 55 07.14         19.1 GXES197G19
         K23S05V KC2023 09 24.86635023 43 15.22 +12 55 57.5          18.8 GVES197203
         K23S05V KC2023 09 24.86785223 43 16.15 +12 56 26.9          18.9 GVES197204
         K23S05V KB2023 09 24.86874923 43 20.54 +12 56 47.8          19.0 GVES197I93
         K23S05V KB2023 09 24.87127723 43 22.71 +12 57 46.9          18.5 GXES197958
         K23S05V KB2023 09 24.87331 23 43 17.51 +12 57 26.1          19.1 GVES197L65
         K23S05V KB2023 09 24.87405223 43 23.76 +12 58 40.7          18.5 GVES197I93
         K23S05V KC2023 09 24.88147223 43 23.781+13 01 30.37         18.7 GVES197K63
         K23S05V KC2023 09 24.88446 23 43 23.251+13 01 39.86         19.1 GXES197G19
         K23S05V KC2023 09 24.88483823 43 25.698+13 02 41.19         18.9 GVES197K63
         K23S05V KB2023 09 24.88756823 43 26.268+13 02 51.11         18.8 GXES197K74
         K23S05V KB2023 09 24.88996 23 43 27.54 +13 03 14.7          18.9 GVES197L65
         K23S05V KC2023 09 24.89035523 43 28.856+13 04 35.82         18.8 GVES197K63
         K23S05V KB2023 09 24.89419423 43 30.142+13 05 09.31         18.3 GXES197K74
         K23S05V KB2023 09 24.90082223 43 33.994+13 07 26.87         18.3 GXES197K74
    
    Observer details:
    104 San Marcello Pistoiese.  Observers P. Bacci, M. Maestripieri.  Measurers
        P. Bacci, L. Tesi, G. Fagioli.  0.60-m F4 Reflector + CCD.
    203 GiaGa Observatory.  Observers S. Foglia, G. Galli.  Measurer G. Galli.
        0.36-m f/5.76 Schmidt-Cassegrain + CCD.
    204 Schiaparelli Observatory.  Observers L. Buzzi, G. Galli.  0.84-m f/3.5
        reflector + CCD.
    703 Catalina Sky Survey.  Observer A. Serrano.  Measurers E. J. Christensen,
        D. Fay, J. B. Fazekas, D. C. Fuls, A. R. Gibbs, A. D. Grauer, H. Groeller,
        J. K. Hogan, R. A. Kowalski, S. M. Larson, G. J. Leonard, D. Rankin, R. L.
        Seaman, A. Serrano, F. C. Shelly, K. W. Wierzchos.  0.68-m Schmidt + 10K
        CCD.
    958 Observatoire de Dax.  Observer P. Dupouy.  0.32-m f/4.1 0.32-m Schmidt-
        Cassegrain + CMO.
    A17 Guidestar Observatory, Weinheim.  Observers M. Emmerich, S. Melchert.
        0.36-m f/6.0 Schmidt-Cassegrain + CCD.
    B72 Soerth.  Observer B. Koch.  0.36-m f/7.6 reflector + CMO.
    C43 Hoyerswerda.  Observer P. Lindner.  0.30-m f/6.3 Schmidt-Cassegrain + CCD.
    G19 Immanuel Kant Observatory,Limbach.  Observers I. Kuettner, B. Haeusler.
        Measurers I. Kuettner, D. Parrott.  0.28-m f/6.7 reflector + CCD.
    I52 Steward Observatory, Mt. Lemmon Station.  Observer A. Serrano.  Measurers
        E. J. Christensen, D. Fay, J. B. Fazekas, D. C. Fuls, A. R. Gibbs, A. D.
        Grauer, H. Groeller, J. K. Hogan, R. A. Kowalski, S. M. Larson, G. J.
        Leonard, D. Rankin, R. L. Seaman, A. Serrano, F. C. Shelly, K. W.
        Wierzchos.  1.0-m prime focus + CCD.
    I93 St Pardon de Conques.  Observer F. Losse.  0.40-m f/3.7 reflector + CMO.
    K63 G. Pascoli Observatory, Castelvecchio Pascoli.  Observer R. Bacci.  0.41-m
        f/3.75 0.41m f/3.2  Newton + CCD.
    K74 Muensterschwarzach Observatory, Schwarzach.  Observer C. Gerhard.  0.30-m
        f/3.75 reflector + CMO.
    L65 Bredenkamp Observatory, Bremen.  Observer H. Duin.  0.23-m f/6.3 reflector
        + CMO.
    X09 Deep Random Survey, Rio Hurtado.  Observers A. Schnabel, D. Ruhela.
        Measurers D. Ruhela, S. Deen.  0.43-m reflector + CMOS.
    
    Orbital elements:
    2023 SV5                                                 Earth MOID = 0.0037 AU
    Epoch 2023 Sept. 13.0 TT = JDT 2460200.5                Veres                   
    M  20.54019              (2000.0)            P               Q                  
    n   0.63765943     Peri.  309.48169     +0.62867474     +0.77766768             
    a   1.3368321      Node   359.46749     -0.67530807     +0.54527094             
    e   0.3080850      Incl.    6.33811     -0.38565150     +0.31290987             
    P   1.55           H   27.39          G   0.15           U   8                  
    Residuals in seconds of arc
    230924 703  0.2-  0.9-    230924 203  0.2-  0.3-    230924 G19  0.8+  1.0-
    230924 703  0.6+  0.7-    230924 C43  0.9-  0.2+    230924 203  0.3-  0.1-
    230924 703  1.0+  0.2+    230924 C43  0.8-  0.3+    230924 204  0.1+  0.3+
    230924 703  0.1-  0.1-    230924 104  0.1-  0.1-    230924 I93  0.4-  0.2-
    230924 X09  0.8+  3.2+    230924 C43  0.1-  0.1+    230924 958  0.6+  1.1-
    230924 X09  0.3+  3.3+    230924 C43  0.3+  0.1+    230924 L65  0.2+  0.2+
    230924 I52  0.0   0.0     230924 104  0.1+  0.1+    230924 I93  0.1+  0.0
    230924 I52  0.0   0.0     230924 104  0.4+  0.3+    230924 K63  0.0   0.0
    230924 I52  0.1+  0.0     230924 L65  0.3+  0.2+    230924 G19  0.7+  0.5+
    230924 I52  0.1+  0.0     230924 I93  0.4+  0.5+    230924 K63  0.1-  0.2+
    230924 B72  0.3+  0.4+    230924 203  0.1-  0.3-    230924 K74  0.1+  0.2-
    230924 A17  0.3-  0.6+    230924 204  0.2+  0.2+    230924 L65  0.0   0.7-
    230924 B72  0.3+  0.2+    230924 958  0.6-  0.2+    230924 K63  0.0   0.5-
    230924 B72  0.3+  0.3+    230924 I93  0.1-  0.0     230924 K74  0.1+  0.2-
    230924 A17  0.2-  0.5+    230924 204  0.1+  0.2+    230924 K74  0.1+  0.1-
    230924 A17  0.2+  0.0     230924 958  0.7+  1.0-
    
    Ephemeris:
    2023 SV5                 a,e,i = 1.34, 0.31, 6                   q = 0.9250
    Date    TT    R. A. (2000) Decl.     Delta      r    Elong.  Phase     V
    2023 08 26    12 25 23.4 -30 36 22   0.1298  0.9356    51.6   122.2    27.8
    ...
    2023 09 10    12 39 49.8 -35 20 03   0.05691 0.9683    45.6   132.0    27.0
    ...
    2023 09 18    13 15 58.8 -44 49 38   0.01929 0.9932    51.6   127.5    24.3
    ...
    2023 09 24    23 29 03.5 +06 20 17   0.01156 1.0148   169.8    10.0    18.4
    2023 09 25    23 44 36.2 +13 45 37   0.01592 1.0186   165.8    13.9    19.2
    2023 09 26    23 53 48.1 +17 54 44   0.02047 1.0224   162.6    17.0    19.9
    ...
    2023 10 02    00 13 26.5 +25 48 17   0.04893 1.0464   157.1    21.9    22.0
    ...
    2023 10 10    00 20 23.8 +27 40 11   0.08848 1.0807   156.7    21.4    23.3
    ...
    2023 10 25    00 28 05.2 +27 17 50   0.1699  1.1501   154.3    22.0    24.9
    
    M. P. C. Staff               (C) Copyright 2023 MPC           M.P.E.C. 2023-S197
    


    Read MPEC 2023-S196 Read MPEC 2023-S198


    MPEC number:

    Enter an MPEC number in one of the following forms:

    • 1997-B01 (the full form)
    • J97B01 (the packed version of the full form)
    • B01 (the abbreviated form)